Location: Nied?wied?
(53.3665°N, 14.8184°E)
Time: 18:08:23
(UTC+00:00)

ISS - Pass Details

Date: 21 May 2021
Orbit: 417 x 422 km, 51.6° (Epoch: 14 June)

Event Time Altitude Azimuth Distance (km) Brightness Sun altitude
Rises 23:21:14 0° 278° (W) 2,372 0.1 -16.1°
Reaches altitude 10° 23:23:47 10° 259° (WSW) 1,505 -1.1 -16.0°
Enters shadow 23:24:00 11° 256° (WSW) 1,447 -1.2 -16.0°
